Overview Statistics Trail Chart Weather Telemetry Raw packets
 

This is the latest recevied weather packets stored in our database for station/object PA3DZX-13. If no packets are shown the sender has not sent any weather packets the latest 10 day(s).

<< 14 15 16 17 18 19 20 >>
Time Temp. Humidity Pressure Rain* Wind** Luminosity Snow
1788271669 20.56° C 50% 1019.2 hPa 0 mm - - -
1788270768 21.67° C 50% 1019.2 hPa 0 mm - - -
1788269868 20.56° C 49% 1019.1 hPa 0 mm - - -
1788268967 20° C 53% 1019 hPa 0 mm - - -
1788268067 20° C 54% 1019.1 hPa 0 mm - - -
1788267166 20° C 54% 1019.1 hPa 0 mm - - -
1788266267 20° C 54% 1019.1 hPa 0 mm - - -
1788265365 20.56° C 55% 1018.9 hPa 0 mm - - -
1788264465 20° C 60% 1018.9 hPa 0 mm - - -
1788263564 20.56° C 58% 1018.8 hPa 0 mm - - -
1788262665 20° C 67% 1018.8 hPa 0 mm - - -
1788261764 18.89° C 72% 1018.8 hPa 0 mm - - -
1788260863 18.89° C 79% 1018.9 hPa 0 mm - - -
1788259963 17.78° C 82% 1019 hPa 0 mm - - -
1788259062 17.78° C 83% 1019 hPa 0 mm - - -
1788258162 17.78° C 86% 1019 hPa 0 mm - - -
1788257262 16.67° C 87% 1019 hPa 0 mm - - -
1788256361 16.67° C 86% 1019 hPa 0 mm - - -
1788255461 17.78° C 86% 1018.9 hPa 0 mm - - -
1788254560 16.67° C 87% 1018.9 hPa 0 mm - - -
1788253661 16.67° C 87% 1018.7 hPa 0 mm - - -
1788252759 16.67° C 88% 1018.6 hPa 0 mm - - -
1788251859 16.67° C 87% 1018.5 hPa 0 mm - - -
1788250958 16.67° C 87% 1018.5 hPa 0 mm - - -
1788250059 16.67° C 87% 1018.3 hPa 0 mm - - -

* Rain latest hour (hover to see other rain measurements)
** Current wind speed in m/s (hover to see current wind gust speed)